User: anonymous   Login
Location: D�derode
(51.8092°N, 10.1065°E)
Time: 13:31:29
(UTC+00:00)
Language:

BREEZE-M DEB (TANK) - Orbit

View from above orbital plane
View from above orbital plane
View from above satellite
View from above satellite

Ground track
Ground track

The orbit data is extracted from the following two-line orbital elements,

1 36501U 10010C   21128.63281581  .00000550  00000-0  10760-3 0  9992
2 36501  49.6327 104.8508 4882771 155.2048 239.6333  5.80453509233068
Epoch (UTC): 08 May 2021 15:11:15
Eccentricity: 0.4882771
inclination: 49.6327°
perigee height: 314 km
apogee height: 13086 km
right ascension of ascending node: 104.8508°
argument of perigee: 155.2048°
revolutions per day: 5.80453509
mean anomaly at epoch: 239.6333°
orbit number at epoch: 23306

The dashed part of the orbit path shows where the satellite is in the earth's shadow,  

DLR